TimeEDT,TemperatureF,Dew PointF,Humidity,Sea Level PressureIn,VisibilityMPH,Wind Direction,Wind SpeedMPH,Gust SpeedMPH,PrecipitationIn,Events,Conditions,WindDirDegrees,DateUTC
12:53 AM,66.0,64.9,96,29.64,10.0,West,4.6,-,N/A,,Clear,280,2013-06-28 04:53:00
1:53 AM,66.0,64.0,93,29.64,10.0,West,3.5,-,N/A,,Clear,280,2013-06-28 05:53:00
2:53 AM,64.9,64.0,97,29.64,10.0,North,3.5,-,N/A,,Clear,10,2013-06-28 06:53:00
3:53 AM,64.9,64.0,97,29.65,10.0,NE,4.6,-,N/A,,Scattered Clouds,50,2013-06-28 07:53:00
4:00 AM,66.2,64.4,94,29.65,10.0,NE,4.6,-,N/A,,Mostly Cloudy,40,2013-06-28 08:00:00
4:46 AM,66.2,64.4,94,29.64,10.0,Calm,Calm,-,N/A,,Mostly Cloudy,0,2013-06-28 08:46:00
4:53 AM,66.0,64.0,93,29.63,10.0,Calm,Calm,-,N/A,,Overcast,0,2013-06-28 08:53:00
5:01 AM,66.2,64.4,94,29.64,10.0,Calm,Calm,-,N/A,,Mostly Cloudy,0,2013-06-28 09:01:00
5:53 AM,66.0,64.0,93,29.62,10.0,Calm,Calm,-,N/A,,Overcast,0,2013-06-28 09:53:00
6:07 AM,66.2,64.4,94,29.63,10.0,Calm,Calm,-,N/A,,Overcast,0,2013-06-28 10:07:00
6:33 AM,66.2,64.4,94,29.63,4.0,North,4.6,-,N/A,,Overcast,350,2013-06-28 10:33:00
6:53 AM,66.9,66.0,97,29.62,4.0,NNW,5.8,-,N/A,,Overcast,340,2013-06-28 10:53:00
7:39 AM,66.2,66.2,100,29.64,5.0,NNW,4.6,-,N/A,,Overcast,330,2013-06-28 11:39:00
7:53 AM,66.9,66.0,97,29.63,5.0,Variable,3.5,-,N/A,,Overcast,0,2013-06-28 11:53:00
8:30 AM,68.0,66.2,94,29.63,6.0,WNW,4.6,-,N/A,,Overcast,300,2013-06-28 12:30:00
8:53 AM,70.0,66.0,87,29.62,8.0,Calm,Calm,-,N/A,,Mostly Cloudy,0,2013-06-28 12:53:00
9:19 AM,69.8,66.2,88,29.62,9.0,NW,6.9,-,N/A,,Mostly Cloudy,310,2013-06-28 13:19:00
9:53 AM,73.0,66.0,79,29.61,10.0,NW,8.1,-,N/A,,Scattered Clouds,310,2013-06-28 13:53:00
10:53 AM,75.0,64.0,69,29.60,10.0,NNW,6.9,-,N/A,,Clear,340,2013-06-28 14:53:00
11:53 AM,75.9,64.0,67,29.60,10.0,NW,9.2,-,N/A,,Scattered Clouds,310,2013-06-28 15:53:00
12:53 PM,78.1,62.1,58,29.58,10.0,NW,9.2,-,N/A,,Partly Cloudy,310,2013-06-28 16:53:00
1:53 PM,78.1,63.0,60,29.57,10.0,NW,12.7,-,N/A,,Partly Cloudy,320,2013-06-28 17:53:00
2:53 PM,78.1,63.0,60,29.56,10.0,NNW,9.2,-,N/A,,Scattered Clouds,330,2013-06-28 18:53:00
3:53 PM,80.1,63.0,56,29.54,10.0,WNW,11.5,-,N/A,,Partly Cloudy,300,2013-06-28 19:53:00
4:53 PM,70.0,60.1,71,29.55,7.0,WNW,11.5,17.3,0.05,Rain,Light Rain,300,2013-06-28 20:53:00
5:29 PM,68.0,60.8,78,29.59,10.0,NNW,9.2,-,0.00,,Overcast,340,2013-06-28 21:29:00
5:53 PM,68.0,61.0,78,29.59,8.0,West,4.6,-,0.01,Rain,Light Rain,280,2013-06-28 21:53:00
6:53 PM,66.9,63.0,87,29.60,5.0,ENE,5.8,-,0.06,Rain,Light Rain,60,2013-06-28 22:53:00
7:53 PM,64.9,61.0,87,29.60,10.0,NNE,10.4,-,0.00,,Overcast,20,2013-06-28 23:53:00
8:53 PM,64.0,62.1,93,29.60,10.0,NNW,3.5,-,0.01,,Overcast,340,2013-06-29 00:53:00
9:53 PM,64.0,62.1,93,29.59,10.0,West,4.6,-,0.00,,Partly Cloudy,270,2013-06-29 01:53:00
10:53 PM,63.0,62.1,97,29.60,10.0,WNW,4.6,-,N/A,,Scattered Clouds,290,2013-06-29 02:53:00
11:53 PM,64.0,62.1,93,29.59,10.0,WNW,3.5,-,N/A,,Mostly Cloudy,300,2013-06-29 03:53:00